| time (UTC) | temp F | wind direction | speed MPH | gust MPH | rain 1hr in | rain 24hr in | rain mn in | humidity % | barometer mb |
| 20260502123030 | 76 | 247 | 6.0 | 14.0 | 0.00 | 0.78 | 0.00 | 35 | 1018.5 |
| 20260502122023 | 75 | 315 | 4.0 | 8.0 | 0.00 | 0.78 | 0.00 | 33 | 1018.4 |
| 20260502121017 | 75 | 202 | 2.0 | 8.0 | 0.00 | 0.78 | 0.00 | 34 | 1018.3 |
| 20260502115005 | 75 | 180 | 1.0 | 9.0 | 0.00 | 0.78 | 0.00 | 35 | 1018.3 |
| 20260502113959 | 74 | 180 | 4.0 | 9.0 | 0.00 | 0.78 | 0.00 | 35 | 1018.8 |
| 20260502112952 | 74 | 157 | 4.0 | 9.0 | 0.00 | 0.78 | 0.00 | 39 | 1018.7 |
| 20260502111945 | 74 | 135 | 2.0 | 8.0 | 0.00 | 0.78 | 0.00 | 38 | 1018.8 |
| 20260502110943 | 73 | 180 | 2.0 | 8.0 | 0.00 | 0.78 | 0.00 | 40 | 1018.7 |
| 20260502105935 | 72 | 202 | 2.0 | 8.0 | 0.00 | 0.78 | 0.00 | 42 | 1019.0 |
| 20260502104928 | 72 | 202 | 4.0 | 7.0 | 0.00 | 0.78 | 0.00 | 40 | 1018.9 |
| 20260502103922 | 71 | 247 | 2.0 | 8.0 | 0.00 | 0.78 | 0.00 | 43 | 1019.3 |
| 20260502102915 | 72 | 157 | 3.0 | 9.0 | 0.00 | 0.78 | 0.00 | 45 | 1019.1 |
| 20260502101912 | 71 | 202 | 4.0 | 9.0 | 0.00 | 0.78 | 0.00 | 45 | 1019.2 |
| 20260502100902 | 70 | 247 | 4.0 | 8.0 | 0.00 | 0.78 | 0.00 | 45 | 1019.3 |
| 20260502090826 | 68 | 292 | 5.0 | 11.0 | 0.00 | 0.78 | 0.00 | 48 | 1019.7 |
| 20260502070711 | 59 | 157 | 3.0 | 4.0 | 0.00 | 0.78 | 0.00 | 58 | 1020.0 |
| 20260502065709 | 59 | 157 | 2.0 | 6.0 | 0.00 | 0.78 | 0.00 | 59 | 1019.7 |
| 20260502064658 | 58 | 270 | 4.0 | 9.0 | 0.00 | 0.78 | 0.00 | 57 | 1019.9 |
| 20260502063653 | 58 | 292 | 4.0 | 8.0 | 0.00 | 0.78 | 0.00 | 58 | 1019.9 |
| 20260502062647 | 58 | 247 | 2.0 | 8.0 | 0.00 | 0.78 | 0.00 | 60 | 1020.2 |
| 20260502061640 | 56 | 247 | 3.0 | 8.0 | 0.00 | 0.78 | 0.00 | 61 | 1020.2 |
| 20260502060638 | 56 | 315 | 3.0 | 8.0 | 0.00 | 0.78 | 0.00 | 62 | 1020.0 |
| 20260502055628 | 55 | 315 | 3.0 | 7.0 | 0.00 | 0.78 | 0.00 | 63 | 1020.3 |
| 20260502054621 | 55 | 225 | 3.0 | 6.0 | 0.00 | 0.78 | 0.00 | 63 | 1020.4 |
| 20260502053620 | 54 | 315 | 3.0 | 8.0 | 0.00 | 0.78 | 0.00 | 66 | 1020.2 |
| 20260502052609 | 53 | 292 | 4.0 | 6.0 | 0.00 | 0.78 | 0.00 | 67 | 1020.4 |
| 20260502051606 | 52 | 157 | 2.0 | 6.0 | 0.00 | 0.78 | 0.00 | 70 | 1020.6 |
| 20260502050557 | 51 | 292 | 2.0 | 4.0 | 0.00 | 0.78 | 0.00 | 70 | 1020.3 |
| 20260502045552 | 50 | 270 | 2.0 | 4.0 | 0.00 | 0.78 | 0.00 | 73 | 1020.3 |
| 20260502044545 | 49 | 270 | 2.0 | 4.0 | 0.00 | 0.78 | 0.00 | 75 | 1020.4 |
| 20260502043539 | 49 | 292 | 2.0 | 4.0 | 0.00 | 0.78 | 0.00 | 76 | 1020.3 |
| 20260502042536 | 48 | 315 | 2.0 | 4.0 | 0.00 | 0.78 | 0.00 | 78 | 1020.2 |
| 20260502041526 | 47 | 292 | 2.0 | 4.0 | 0.00 | 0.78 | 0.00 | 80 | 1020.3 |
| 20260502035514 | 44 | 270 | 0.0 | 2.0 | 0.00 | 0.78 | 0.00 | 85 | 1020.4 |
| 20260502034507 | 43 | 247 | 0.0 | 0.0 | 0.00 | 0.78 | 0.00 | 88 | 1020.4 |
| 20260502033504 | 42 | 247 | 0.0 | 0.0 | 0.00 | 0.78 | 0.00 | 89 | 1020.5 |
| 20260502032456 | 42 | 247 | 0.0 | 0.0 | 0.00 | 0.78 | 0.00 | 91 | 1020.5 |
| 20260502031449 | 41 | 247 | 0.0 | 0.0 | 0.00 | 0.78 | 0.00 | 91 | 1020.5 |
| 20260502030442 | 40 | 247 | 0.0 | 0.0 | 0.00 | 0.78 | 0.00 | 92 | 1020.7 |
| 20260502025437 | 39 | 247 | 0.0 | 0.0 | 0.00 | 0.78 | 0.00 | 91 | 1020.6 |
| 20260502024434 | 40 | 247 | 0.0 | 0.0 | 0.00 | 0.78 | 0.00 | 92 | 1020.6 |
| 20260502023424 | 41 | 247 | 0.0 | 0.0 | 0.00 | 0.78 | 0.00 | 92 | 1020.6 |
| 20260502022418 | 40 | 247 | 0.0 | 0.0 | 0.00 | 0.78 | 0.00 | 91 | 1020.7 |
| 20260502021412 | 40 | 247 | 0.0 | 0.0 | 0.00 | 0.78 | 0.00 | 91 | 1020.7 |
| 20260502020406 | 40 | 247 | 0.0 | 0.0 | 0.00 | 0.78 | 0.00 | 91 | 1020.9 |
| 20260502015403 | 40 | 247 | 0.0 | 0.0 | 0.00 | 0.78 | 0.00 | 92 | 1020.9 |
| 20260502014353 | 41 | 247 | 0.0 | 0.0 | 0.00 | 0.78 | 0.00 | 93 | 1021.1 |
| 20260502013346 | 40 | 247 | 0.0 | 0.0 | 0.00 | 0.78 | 0.00 | 93 | 1021.3 |
| 20260502012341 | 41 | 247 | 0.0 | 0.0 | 0.00 | 0.78 | 0.00 | 94 | 1021.3 |
| 20260502011335 | 40 | 247 | 0.0 | 0.0 | 0.00 | 0.78 | 0.00 | 93 | 1021.3 |
| 20260502010332 | 40 | 247 | 0.0 | 0.0 | 0.00 | 0.78 | 0.00 | 93 | 1021.1 |
| 20260502005322 | 40 | 247 | 0.0 | 0.0 | 0.00 | 0.78 | 0.00 | 92 | 1021.3 |
| 20260502004316 | 40 | 247 | 0.0 | 0.0 | 0.00 | 0.78 | 0.00 | 91 | 1021.2 |
| 20260502003310 | 40 | 247 | 0.0 | 0.0 | 0.00 | 0.78 | 0.00 | 91 | 1021.4 |
| 20260502002306 | 41 | 247 | 0.0 | 0.0 | 0.00 | 0.78 | 0.00 | 90 | 1021.5 |
| 20260502001300 | 41 | 247 | 0.0 | 0.0 | 0.00 | 0.78 | 0.00 | 90 | 1021.3 |
| 20260502000251 | 42 | 247 | 0.0 | 0.0 | 0.00 | 0.78 | 0.00 | 90 | 1021.5 |
| 20260501235245 | 42 | 247 | 0.0 | 0.0 | 0.00 | 0.78 | 0.00 | 90 | 1021.7 |
| 20260501234238 | 41 | 247 | 0.0 | 0.0 | 0.00 | 0.78 | 0.00 | 89 | 1021.5 |
| 20260501233232 | 42 | 247 | 0.0 | 0.0 | 0.00 | 0.78 | 0.00 | 89 | 1021.6 |
| 20260501232230 | 42 | 247 | 0.0 | 0.0 | 0.00 | 0.78 | 0.00 | 89 | 1021.6 |
| 20260501231220 | 42 | 247 | 0.0 | 0.0 | 0.00 | 0.78 | 0.00 | 88 | 1021.5 |
| 20260501230213 | 43 | 247 | 0.0 | 0.0 | 0.00 | 0.78 | 0.00 | 89 | 1021.3 |
| 20260501225209 | 43 | 247 | 0.0 | 0.0 | 0.00 | 0.78 | 0.00 | 89 | 1021.4 |
| 20260501224201 | 44 | 247 | 0.0 | 0.0 | 0.00 | 0.78 | 0.00 | 88 | 1021.4 |
| 20260501223155 | 44 | 247 | 0.0 | 0.0 | 0.00 | 0.78 | 0.00 | 89 | 1021.4 |
| 20260501222148 | 44 | 247 | 0.0 | 0.0 | 0.00 | 0.78 | 0.00 | 88 | 1021.4 |
| 20260501221146 | 44 | 247 | 0.0 | 0.0 | 0.00 | 0.78 | 0.00 | 88 | 1021.4 |
| 20260501220137 | 45 | 247 | 0.0 | 0.0 | 0.00 | 0.78 | 0.00 | 88 | 1021.6 |
| 20260501215130 | 45 | 247 | 0.0 | 0.0 | 0.00 | 0.78 | 0.00 | 88 | 1021.4 |
| 20260501214124 | 45 | 247 | 0.0 | 0.0 | 0.00 | 0.78 | 0.00 | 87 | 1021.5 |
| 20260501213119 | 46 | 247 | 0.0 | 0.0 | 0.00 | 0.78 | 0.00 | 86 | 1021.4 |
| 20260501212116 | 46 | 247 | 0.0 | 0.0 | 0.00 | 0.78 | 0.00 | 85 | 1021.5 |
| 20260501211105 | 46 | 247 | 0.0 | 0.0 | 0.00 | 0.78 | 0.00 | 85 | 1021.6 |
| 20260501210100 | 47 | 247 | 0.0 | 0.0 | 0.00 | 0.78 | 0.00 | 84 | 1021.6 |
| 20260501205053 | 47 | 247 | 0.0 | 2.0 | 0.00 | 0.78 | 0.00 | 84 | 1021.6 |
| 20260501204047 | 49 | 247 | 0.0 | 0.0 | 0.78 | 0.78 | 0.00 | 83 | 1021.1 |
| 20260501203044 | 49 | 270 | 0.0 | 0.0 | 0.78 | 0.78 | 0.00 | 82 | 1021.6 |
| 20260501202035 | 49 | 270 | 0.0 | 0.0 | 0.78 | 0.78 | 0.00 | 82 | 1021.4 |
| 20260501201028 | 50 | 270 | 0.0 | 52.0 | 0.78 | 0.78 | 0.00 | 81 | 1021.5 |
| 20260501200022 | 53 | 247 | 9.0 | 52.0 | 0.78 | 0.78 | 0.00 | 10 | 774.2 |
| 20260501195017 | 53 | 247 | 9.0 | 52.0 | 0.78 | 0.78 | 0.00 | 10 | 774.2 |
| 20260501194014 | 52 | 270 | 2.0 | 2.0 | 0.00 | 0.00 | 0.00 | 76 | 1021.5 |
| 20260501193004 | 53 | 180 | 1.0 | 2.0 | 0.00 | 0.00 | 0.00 | 78 | 1021.5 |
| 20260501191957 | 52 | 270 | 0.0 | 2.0 | 0.00 | 0.00 | 0.00 | 78 | 1021.3 |
| 20260501190951 | 52 | 270 | 0.0 | 0.0 | 0.00 | 0.00 | 0.00 | 78 | 1021.4 |
| 20260501185944 | 53 | 270 | 0.0 | 0.0 | 0.00 | 0.00 | 0.00 | 79 | 1021.3 |
| 20260501184943 | 53 | 270 | 0.0 | 0.0 | 0.00 | 0.00 | 0.00 | 77 | 1021.1 |
| 20260501183933 | 54 | 270 | 0.0 | 0.0 | 0.00 | 0.00 | 0.00 | 75 | 1021.3 |
| 20260501182926 | 55 | 270 | 0.0 | 0.0 | 0.00 | 0.00 | 0.00 | 72 | 1021.3 |
| 20260501181921 | 57 | 270 | 0.0 | 0.0 | 0.00 | 0.00 | 0.00 | 69 | 1021.3 |
| 20260501180914 | 59 | 270 | 0.0 | 0.0 | 0.00 | 0.00 | 0.00 | 65 | 1021.2 |
| 20260501175911 | 58 | 270 | 0.0 | 0.0 | 0.00 | 0.00 | 0.00 | 67 | 1021.2 |
| 20260501174901 | 60 | 270 | 0.0 | 0.0 | 0.00 | 0.00 | 0.00 | 63 | 1021.4 |
| 20260501173856 | 62 | 270 | 0.0 | 0.0 | 0.00 | 0.00 | 0.00 | 59 | 1021.1 |
| 20260501172849 | 63 | 270 | 0.0 | 0.0 | 0.00 | 0.00 | 0.00 | 56 | 1021.3 |
| 20260501171843 | 64 | 292 | 0.0 | 2.0 | 0.00 | 0.00 | 0.00 | 53 | 1021.3 |
| 20260501170839 | 64 | 270 | 1.0 | 2.0 | 0.00 | 0.00 | 0.00 | 53 | 1021.3 |
| 20260501165831 | 64 | 292 | 1.0 | 2.0 | 0.00 | 0.00 | 0.00 | 53 | 1021.3 |
| 20260501164825 | 65 | 337 | 0.0 | 4.0 | 0.00 | 0.00 | 0.00 | 53 | 1021.3 |
| 20260501163818 | 66 | 337 | 2.0 | 4.0 | 0.00 | 0.00 | 0.00 | 52 | 1021.1 |
| 20260501162812 | 66 | 270 | 2.0 | 4.0 | 0.00 | 0.00 | 0.00 | 51 | 1021.5 |
| 20260501161809 | 66 | 247 | 2.0 | 4.0 | 0.00 | 0.00 | 0.00 | 50 | 1021.5 |
| 20260501160759 | 66 | 315 | 3.0 | 6.0 | 0.00 | 0.00 | 0.00 | 51 | 1021.7 |
| 20260501155753 | 67 | 157 | 0.0 | 4.0 | 0.00 | 0.00 | 0.00 | 51 | 1021.8 |
| 20260501154747 | 67 | 180 | 1.0 | 4.0 | 0.00 | 0.00 | 0.00 | 49 | 1021.6 |
| 20260501153741 | 66 | 180 | 3.0 | 6.0 | 0.00 | 0.00 | 0.00 | 50 | 1021.8 |
| 20260501152738 | 66 | 180 | 2.0 | 4.0 | 0.00 | 0.00 | 0.00 | 51 | 1021.7 |
| 20260501151730 | 67 | 180 | 0.0 | 7.0 | 0.00 | 0.00 | 0.00 | 50 | 1022.0 |
| 20260501150722 | 66 | 270 | 3.0 | 8.0 | 0.00 | 0.00 | 0.00 | 50 | 1022.1 |
| 20260501145716 | 66 | 157 | 2.0 | 11.0 | 0.00 | 0.00 | 0.00 | 50 | 1022.1 |
| 20260501144709 | 67 | 247 | 2.0 | 4.0 | 0.00 | 0.00 | 0.00 | 50 | 1022.2 |
| 20260501143706 | 65 | 202 | 3.0 | 6.0 | 0.00 | 0.00 | 0.00 | 51 | 1022.2 |
| 20260501142657 | 66 | 157 | 2.0 | 7.0 | 0.00 | 0.00 | 0.00 | 50 | 1022.5 |
| 20260501141650 | 65 | 157 | 4.0 | 6.0 | 0.00 | 0.00 | 0.00 | 50 | 1022.4 |
| 20260501140644 | 64 | 202 | 1.0 | 6.0 | 0.00 | 0.00 | 0.00 | 50 | 1022.4 |